Regional Weather Roundup
Issued by NWS Charleston, WV

Home | Current Version | Previous Version | Graphics & Text | Print | Product List | Glossary Off
Versions: 1 2 3 4 5 6 7 8 9 10 11 12 13 14 15 16 17 18 19 20 21 22 23 24 25 26 27 28 29 30 31 32 33 34 35 36 37 38 39 40 41 42 43 44 45 46 47 48 49 50

000
ASUS41 KRLX 061210
RWRRLX
West Virginia Regional Weather Roundup
National Weather Service Charleston WV
700 AM EST FRI MAR 06 2015

Note: "fair" indicates few or no clouds below 12,000 feet with no
significant weather and/or obstructions to visibility.

WVZ003-061300-
Northern Panhandle of West Virginia

CITY           SKY/WX    TMP DP  RH WIND       PRES   REMARKS
WHEELING       PTCLDY     0  -4  83 CALM      30.50F
$$

WVZ009-061300-
Northwest West Virginia

CITY           SKY/WX    TMP DP  RH WIND       PRES   REMARKS
PARKERSBURG    MOCLDY    -2  -6  83 CALM      30.58S FOG
$$

WVZ006-061300-
Western West Virginia

CITY           SKY/WX    TMP DP  RH WIND       PRES   REMARKS
HUNTINGTON     FOG        1  -1  91 CALM      30.54S VSB<1/4
$$

WVZ015-061300-
West Central West Virginia

CITY           SKY/WX    TMP DP  RH WIND       PRES   REMARKS
CHARLESTON     MOCLDY     5   1  83 CALM      30.53S
$$

WVZ022-031-061300-
North Central West Virginia

CITY           SKY/WX    TMP DP  RH WIND       PRES   REMARKS
CLARKSBURG     MOCLDY    -5  -8  87 CALM      30.50S
MORGANTOWN     NOT AVBL
$$

WVZ025-035-042-045-061300-
Southern West Virginia

CITY           SKY/WX    TMP DP  RH WIND       PRES   REMARKS
BECKLEY        LGT SNOW   8   4  83 CALM      30.38R FOG
LOGAN          NOT AVBL
BLUEFIELD      MOCLDY     8   3  80 CALM      30.35R
LEWISBURG      PTCLDY     1  -2  84 CALM      30.39S
$$

WVZ047-061300-
Northern Mountains of West Virginia

CITY           SKY/WX    TMP DP  RH WIND       PRES   REMARKS
ELKINS         MOCLDY    -8 -12  83 CALM      30.42F
$$

WVZ052-061300-
Eastern Panhandle of West Virginia

CITY           SKY/WX    TMP DP  RH WIND       PRES   REMARKS
MARTINSBURG    MOCLDY     3  -4  72 CALM      30.56S
PETERSBURG       N/A    N/A N/A N/A MISG        N/A
$$


USA.gov is the U.S. government's official web portal to all federal, state and local government web resources and services.